Date String (YYYY-MM-DD hh:mm:ss) UTC,Instrument flags,absolute air pressure of the measurement (hPa),sample flow rate (lpm),inlet stack bypass flow (lpm),air temperature of the measurement (°C),ambient temperature measured by the external sensor (°C),aerosol sample conditioner tube jacket temperature (°C),OPC LED temperature (°C),internal box temperature (°C),relative humidity of the measurement (%),span deviation,mass concentration of particles derived from Lorenz-Mie calculation of OPC scattering (μg/m³),mass concentration of particles derived from Lorenz-Mie calculation of OPC scattering (μg/m³),mass concentration of particles derived from Lorenz-Mie calculation of OPC scattering (μg/m³)
DateTimeUTC,F1_M11,P_M11,Q1_M11,Q2_M11,T1_M11,T2_M11,T3_M11,T4_M11,T5_M11,U1_M11,ZSPAN_M11,X0_M11,X2_M11,X1_M11
2024-05-15 05:00:00,SystemResetWarning,0827.7,5.00,000.00,025.6,025.1,000.0,033.6,027.4,026.7,0000.0,0009.11,0003.29,0002.65
2024-05-15 05:01:00,SystemResetWarning,0827.7,5.00,000.00,025.6,025.1,000.0,033.6,027.4,026.6,0000.0,0008.41,0003.31,0002.68
2024-05-15 05:02:00,SystemResetWarning,0827.6,5.00,000.00,025.6,024.9,000.0,033.7,027.3,026.6,0000.0,0008.35,0003.35,0002.72
2024-05-15 05:03:00,SystemResetWarning,0827.6,5.00,000.00,025.3,022.8,000.0,033.7,026.2,027.0,0000.0,0008.34,0003.36,0002.74
2024-05-15 05:04:00,SystemResetWarning,0827.5,5.01,000.00,024.9,021.7,000.0,033.7,025.5,027.8,0000.0,0007.76,0003.37,0002.76
2024-05-15 05:05:00,SystemResetWarning,0827.4,5.01,000.00,024.7,021.9,000.0,033.6,025.5,028.2,0000.0,0007.93,0003.42,0002.78
2024-05-15 05:06:00,SystemResetWarning,0827.4,4.99,000.00,024.6,022.3,000.0,033.4,025.7,028.3,0000.0,0007.62,0003.43,0002.78
2024-05-15 05:07:00,SystemResetWarning,0827.6,4.99,000.00,024.6,022.7,000.0,033.3,026.0,028.3,0000.0,0007.30,0003.46,0002.78
2024-05-15 05:08:00,SystemResetWarning,0827.6,5.01,000.00,024.6,023.0,000.0,033.3,026.2,028.3,0000.0,0007.43,0003.48,0002.78
2024-05-15 05:09:00,SystemResetWarning,0827.6,5.01,000.00,024.7,023.3,000.0,033.2,026.3,028.2,0000.0,0007.40,0003.49,0002.81
2024-05-15 05:10:00,SystemResetWarning,0827.6,4.99,000.00,024.7,023.5,000.0,033.2,026.4,028.3,0000.0,0007.04,0003.50,0002.83
2024-05-15 05:11:00,SystemResetWarning,0827.6,5.00,000.00,024.7,023.7,000.0,033.2,026.4,028.3,0000.0,0007.10,0003.52,0002.85
2024-05-15 05:12:00,SystemResetWarning,0827.7,5.00,000.00,024.8,023.9,000.0,033.2,026.6,028.1,0000.0,0007.33,0003.54,0002.86
2024-05-15 05:13:00,SystemResetWarning,0827.7,5.00,000.00,024.8,024.0,000.0,033.2,026.6,028.0,0000.0,0007.33,0003.50,0002.85
2024-05-15 05:14:00,SystemResetWarning,0827.6,5.00,000.00,024.9,024.1,000.0,033.2,026.7,027.8,0000.0,0007.66,0003.51,0002.83
2024-05-15 05:15:00,SystemResetWarning,0827.6,5.00,000.00,024.9,024.2,000.0,033.2,026.7,027.7,0000.0,0008.64,0003.51,0002.84
2024-05-15 05:16:00,SystemResetWarning,0827.5,5.01,000.00,025.0,024.3,000.0,033.2,026.8,027.5,0000.0,0008.19,0003.49,0002.84
2024-05-15 05:17:00,SystemResetWarning,0827.6,5.00,000.00,025.0,024.4,000.0,033.2,026.8,027.2,0000.0,0008.18,0003.50,0002.86
2024-05-15 05:18:00,SystemResetWarning,0827.9,5.00,000.00,025.0,024.5,000.0,033.2,026.9,027.0,0000.0,0008.13,0003.48,0002.87
2024-05-15 05:19:00,SystemResetWarning,0827.5,5.00,000.00,025.1,024.5,000.0,033.2,026.9,027.1,0000.0,0008.02,0003.48,0002.89
2024-05-15 05:20:00,SystemResetWarning,0827.6,4.99,000.00,025.1,024.6,000.0,033.2,026.9,027.0,0000.0,0008.07,0003.49,0002.90
2024-05-15 05:21:00,SystemResetWarning,0827.5,4.99,000.00,025.2,024.6,000.0,033.3,027.0,026.9,0000.0,0008.10,0003.50,0002.90
2024-05-15 05:22:00,SystemResetWarning,0827.5,5.00,000.00,025.2,024.7,000.0,033.3,027.0,027.0,0000.0,0008.21,0003.52,0002.93
2024-05-15 05:23:00,SystemResetWarning,0827.5,5.00,000.00,025.2,024.7,000.0,033.3,027.1,026.9,0000.0,0008.52,0003.53,0002.95
2024-05-15 05:24:00,SystemResetWarning,0827.6,5.00,000.00,025.3,024.8,000.0,033.4,027.1,026.8,0000.0,0008.47,0003.54,0002.97
2024-05-15 05:25:00,SystemResetWarning,0827.6,5.00,000.00,025.3,024.8,000.0,033.4,027.1,026.8,0000.0,0008.40,0003.55,0003.00
2024-05-15 05:26:00,SystemResetWarning,0827.6,5.00,000.00,025.3,024.8,000.0,033.4,027.2,026.7,0000.0,0007.07,0003.54,0003.02
2024-05-15 05:27:00,SystemResetWarning,0827.6,5.01,000.00,025.4,024.9,000.0,033.4,027.2,026.7,0000.0,0006.70,0003.50,0003.04
2024-05-15 05:28:00,SystemResetWarning,0827.5,4.99,000.00,025.3,024.0,000.0,033.5,026.7,026.7,0000.0,0006.69,0003.49,0003.05
2024-05-15 05:29:00,SystemResetWarning,0827.4,5.00,000.00,024.9,021.9,000.0,033.5,025.6,027.3,0000.0,0006.71,0003.52,0003.06
2024-05-15 05:30:00,SystemResetWarning,0827.5,5.02,000.00,024.6,021.5,000.0,033.5,025.3,027.9,0000.0,0006.71,0003.52,0003.07
2024-05-15 05:31:00,SystemResetWarning,0827.6,4.99,000.00,024.4,021.9,000.0,033.3,025.4,028.1,0000.0,0006.75,0003.53,0003.08
2024-05-15 05:32:00,SystemResetWarning,0827.8,5.00,000.00,024.4,022.2,000.0,033.2,025.6,028.1,0000.0,0006.84,0003.54,0003.09
2024-05-15 05:33:00,SystemResetWarning,0827.7,5.00,000.00,024.5,022.6,000.0,033.1,025.9,028.1,0000.0,0007.23,0003.59,0003.09
2024-05-15 05:34:00,SystemResetWarning,0827.4,4.99,000.00,024.5,022.9,000.0,033.0,026.0,028.1,0000.0,0006.54,0003.59,0003.10
2024-05-15 05:35:00,SystemResetWarning,0827.5,5.00,000.00,024.5,023.2,000.0,033.0,026.2,028.1,0000.0,0006.55,0003.61,0003.11
2024-05-15 05:36:00,SystemResetWarning,0827.4,5.00,000.00,024.5,023.4,000.0,033.0,026.3,028.0,0000.0,0006.34,0003.65,0003.12
2024-05-15 05:37:00,SystemResetWarning,0827.4,5.00,000.00,024.6,023.6,000.0,033.0,026.3,028.0,0000.0,0006.40,0003.68,0003.12
2024-05-15 05:38:00,SystemResetWarning,0827.4,5.00,000.00,024.6,023.8,000.0,032.9,026.4,027.9,0000.0,0006.75,0003.73,0003.13
2024-05-15 05:39:00,SystemResetWarning,0827.4,5.00,000.00,024.7,023.9,000.0,033.0,026.5,027.8,0000.0,0007.24,0003.77,0003.15
2024-05-15 05:40:00,SystemResetWarning,0827.5,4.99,000.00,024.7,024.0,000.0,033.0,026.5,027.7,0000.0,0007.31,0003.78,0003.16
2024-05-15 05:41:00,SystemResetWarning,0827.4,5.01,000.00,024.8,024.1,000.0,033.0,026.6,027.7,0000.0,0007.30,0003.77,0003.17
2024-05-15 05:42:00,SystemResetWarning,0827.4,5.01,000.00,024.8,024.2,000.0,033.0,026.7,027.6,0000.0,0007.75,0003.77,0003.18
2024-05-15 05:43:00,SystemResetWarning,0827.4,5.00,000.00,024.9,024.3,000.0,033.0,026.7,027.5,0000.0,0007.79,0003.75,0003.18
2024-05-15 05:44:00,SystemResetWarning,0827.4,4.99,000.00,024.9,024.4,000.0,033.0,026.7,027.5,0000.0,0008.16,0003.73,0003.18
2024-05-15 05:45:00,SystemResetWarning,0827.5,4.99,000.00,024.9,024.4,000.0,033.1,026.8,027.4,0000.0,0008.22,0003.71,0003.18
2024-05-15 05:46:00,SystemResetWarning,0827.8,5.00,000.00,025.0,024.5,000.0,033.1,026.8,027.4,0000.0,0008.40,0003.70,0003.18
2024-05-15 05:47:00,SystemResetWarning,0827.9,5.00,000.00,025.0,024.5,000.0,033.1,026.9,027.3,0000.0,0009.32,0003.67,0003.18
2024-05-15 05:48:00,SystemResetWarning,0827.6,5.01,000.00,025.1,024.6,000.0,033.1,026.9,027.3,0000.0,0009.64,0003.64,0003.18
2024-05-15 05:49:00,SystemResetWarning,0827.5,5.00,000.00,025.1,024.6,000.0,033.2,027.0,027.3,0000.0,0009.57,0003.62,0003.18
2024-05-15 05:50:00,SystemResetWarning,0827.5,5.00,000.00,025.1,024.7,000.0,033.2,027.0,027.2,0000.0,0009.39,0003.62,0003.18
2024-05-15 05:51:00,SystemResetWarning,0827.5,5.00,000.00,025.2,024.7,000.0,033.2,027.0,027.2,0000.0,0009.55,0003.61,0003.17
2024-05-15 05:52:00,SystemResetWarning,0827.5,5.00,000.00,025.2,024.7,000.0,033.3,027.1,027.1,0000.0,0009.86,0003.60,0003.17
2024-05-15 05:53:00,SystemResetWarning,0827.5,5.00,000.00,025.2,024.8,000.0,033.3,027.1,027.0,0000.0,0009.56,0003.63,0003.17
2024-05-15 05:54:00,SystemResetWarning,0827.6,5.00,000.00,025.3,024.8,000.0,033.3,027.1,027.0,0000.0,0009.59,0003.66,0003.18
2024-05-15 05:55:00,SystemResetWarning,0827.5,5.00,000.00,025.3,024.8,000.0,033.4,027.2,026.9,0000.0,0009.27,0003.68,0003.20
2024-05-15 05:56:00,SystemResetWarning,0827.5,4.98,000.00,025.3,024.8,000.0,033.4,027.2,026.9,0000.0,0009.92,0003.70,0003.22
2024-05-15 05:57:00,SystemResetWarning,0827.5,5.00,000.00,025.4,024.9,000.0,033.4,027.2,026.8,0000.0,0009.92,0003.74,0003.23
2024-05-15 05:58:00,SystemResetWarning,0827.5,5.02,000.00,025.4,024.9,000.0,033.4,027.2,026.7,0000.0,0009.07,0003.75,0003.25
2024-05-15 05:59:00,SystemResetWarning,0827.6,4.99,000.00,025.3,023.9,000.0,033.5,026.7,026.8,0000.0,0008.65,0003.78,0003.27
